Weather History for Big Piney, WY

Change the Weather History Date:

Wednesday, May 8, 2013

  Actual Average Record
Temperature  
Mean Temperature 47 °F 43 °F  
Max Temperature 59 °F 59 °F 73 °F (2001)
Min Temperature 35 °F 28 °F 12 °F (1984)
Degree Days  
Heating Degree Days 18 22  
Month to date heating degree days 195 182  
Since 1 July heating degree days 9102 9713  
Cooling Degree Days 0 0  
Month to date cooling degree days 0 0  
Year to date cooling degree days 0 0  
Moisture  
Dew Point 37 °F    
Average Humidity 66    
Maximum Humidity 92    
Minimum Humidity 39    
Precipitation  
Precipitation 0.01 in 0.03 in 0.47 in (1986)
Month to date precipitation 0.53 0.20  
Year to date precipitation 0.97 1.83  
Sea Level Pressure  
Sea Level Pressure 30.01 in    
Wind  
Wind Speed 7 mph (West)    
Max Wind Speed 26 mph    
Max Gust Speed 30 mph    
Visibility 10 miles    
Events Rain    
T = Trace of Precipitation, MM = Missing Value Source: NWS Daily Summary

Daily Weather History Graph

Daily Weather History Graph

Search for Another Location

Airport:

Trip Planner

Search our weather history database for the weather conditions in past years. The results will help you decide how hot, cold, wet, or windy it might be!

Date:

Astronomy

May. 08, 2013 Rise Set
Actual Time 6:05 AM MDT 8:28 PM MDT
Civil Twilight 5:34 AM MDT 9:00 PM MDT
Nautical Twilight 4:55 AM MDT 9:39 PM MDT
Astronomical Twilight 4:11 AM MDT 10:23 PM MDT
Moon 5:17 AM MDT (5/8) 7:29 PM MDT (5/8)
Length of Visible Light 15h 26m
Length of Day
14h 22m
Waning Crescent, 2% of the Moon is Illuminated
May 8
Waning Crescent
May 9
New
May 17
First Quarter
May 24
Full
May 31
Last Quarter

Hourly Weather History & Observations

Time (MDT) Temp. Windchill Dew Point Humidity Pressure Visibility Wind Dir Wind Speed Gust Speed Precip Events Conditions
12:53 AM 41.0 °F 35.8 °F 37.9 °F 89% 29.95 in 10.0 mi NE 8.1 mph - N/A   Overcast
1:53 AM 42.1 °F 38.4 °F 37.9 °F 85% 29.95 in 10.0 mi ENE 5.8 mph - N/A   Overcast
2:53 AM 41.0 °F - 37.9 °F 89% 29.92 in 10.0 mi Calm Calm - N/A   Overcast
3:53 AM 39.9 °F 34.5 °F 37.0 °F 89% 29.94 in 10.0 mi ENE 8.1 mph - N/A   Overcast
4:53 AM 39.0 °F 33.4 °F 36.0 °F 89% 29.93 in 10.0 mi North 8.1 mph - 0.00 in   Scattered Clouds
5:53 AM 36.0 °F - 33.1 °F 89% 29.95 in 10.0 mi Calm Calm - N/A   Partly Cloudy
6:53 AM 37.0 °F 33.3 °F 33.1 °F 86% 29.95 in 10.0 mi NW 4.6 mph - N/A   Partly Cloudy
7:53 AM 39.0 °F - 36.0 °F 89% 29.98 in 10.0 mi Calm Calm - N/A   Overcast
8:53 AM 46.0 °F - 39.0 °F 76% 29.99 in 10.0 mi Calm Calm - N/A   Overcast
9:53 AM 50.0 °F - 39.0 °F 66% 29.99 in 10.0 mi Calm Calm - 0.00 in   Overcast
10:53 AM 55.0 °F - 36.0 °F 49% 29.96 in 10.0 mi Calm Calm - N/A   Overcast
11:53 AM 57.0 °F - 32.0 °F 39% 29.94 in 10.0 mi SSE 6.9 mph - N/A   Scattered Clouds
12:41 PM 48.2 °F - 37.4 °F 66% 30.15 in 10.0 mi SSW 17.3 mph 29.9 mph N/A   Overcast
12:53 PM 48.0 °F - 37.9 °F 68% 30.02 in 10.0 mi SSW 15.0 mph 20.7 mph 0.00 in Rain Light Rain
1:53 PM 51.1 °F - 37.9 °F 61% 30.00 in 10.0 mi SW 19.6 mph - 0.01 in   Overcast
2:53 PM 57.0 °F - 37.0 °F 47% 29.97 in 10.0 mi West 11.5 mph - N/A   Scattered Clouds
3:53 PM 57.9 °F - 33.1 °F 39% 29.96 in 10.0 mi WSW 8.1 mph - N/A   Clear
4:53 PM 52.0 °F - 39.0 °F 61% 30.00 in 10.0 mi SW 18.4 mph - 0.00 in Rain Light Rain
5:53 PM 50.0 °F - 36.0 °F 59% 30.06 in 9.0 mi WSW 3.5 mph - 0.00 in Rain Light Rain
6:14 PM 48.2 °F - 39.2 °F 71% 30.17 in 10.0 mi SW 11.5 mph 18.4 mph 0.00 in   Mostly Cloudy
6:21 PM 46.4 °F 41.1 °F 39.2 °F 76% 30.17 in 10.0 mi SW 11.5 mph - 0.00 in   Scattered Clouds
6:53 PM 46.9 °F - 39.0 °F 74% 30.07 in 10.0 mi WSW 8.1 mph - 0.00 in   Clear
7:53 PM 45.0 °F 41.2 °F 37.9 °F 76% 30.07 in 10.0 mi WNW 6.9 mph - N/A   Partly Cloudy
8:53 PM 39.9 °F 34.5 °F 36.0 °F 86% 30.06 in 10.0 mi NNW 8.1 mph - N/A   Clear
9:53 PM 39.9 °F 33.4 °F 35.1 °F 83% 30.06 in 10.0 mi NNW 10.4 mph - N/A   Overcast
10:53 PM 39.0 °F 34.8 °F 34.0 °F 82% 30.06 in 10.0 mi ENE 5.8 mph - N/A   Scattered Clouds
11:53 PM 37.9 °F 34.4 °F 33.1 °F 83% 30.06 in 10.0 mi NE 4.6 mph - N/A   Scattered Clouds